Temperature
22 18 18 18 18 19 20 21 21 22 23 21 20 19 19 19 18 17 17 17 17 16 16 16 16 16 16 16 16 16 16 16 16 16 16 16 16 16 16 16 16 16 16 16
18 18 20 20 21 21 21 21 21 21 23 22 20 19 18 18 17 17 16 16 16 15 15 15 15 16 16 16 16 16 16 16 16 16 16 16 16 15 15 15 15 16 15 15
19 20 22 22 22 22 22 22 22 22 22 21 20 18 17 17 17 16 16 15 15 15 14 14 14 15 15 15 15 15 15 16 16 16 16 15 15 15 14 14 15 15 15 15
19 21 23 23 23 23 21 23 23 22 20 18 19 17 16 16 15 15 14 14 14 14 14 14 14 14 14 14 14 14 15 15 15 15 15 15 15 15 14 14 14 14 14 14
20 22 22 23 23 24 23 23 22 21 19 17 17 16 16 15 15 14 14 13 13 13 13 13 13 13 13 13 13 14 14 14 14 14 14 15 14 14 14 14 14 14 13 14
21 22 23 23 24 24 23 21 19 17 16 17 17 16 15 14 15 14 13 12 12 12 12 12 12 12 12 12 13 13 13 13 13 13 13 14 14 13 13 13 13 13 13 13
20 22 22 23 23 22 21 18 17 17 15 16 16 16 15 14 15 14 13 12 12 12 12 12 12 12 11 12 12 12 12 12 12 13 12 12 12 12 12 12 12 12 12 12
19 20 22 23 22 21 21 19 17 17 16 15 16 15 14 14 14 13 12 11 11 11 11 11 11 11 11 11 11 11 11 11 11 11 11 11 11 11 11 11 11 11 11 11
19 20 22 23 23 22 21 19 17 16 16 15 15 15 14 14 13 12 11 11 10 10 10 10 10 10 10 10 10 10 10 10 10 10 10 10 10 10 10 10 10 10 10 10
19 20 21 22 21 21 20 19 16 16 16 16 15 15 14 13 13 12 11 10 10 10 9 9 9 9 9 9 9 9 10 10 10 10 10 10 10 10 10 9 9 9 9 9
19 18 19 19 19 19 19 19 16 15 15 15 15 14 15 13 13 12 11 10 9 9 9 9 8 8 8 8 9 9 9 9 9 9 9 9 9 9 9 9 8 8 8 8
19 16 17 18 18 19 19 18 16 16 15 14 14 14 14 13 12 11 10 9 9 9 9 8 8 8 8 8 8 8 8 8 8 8 8 8 8 8 8 8 8 8 7 8
18 16 16 17 17 18 18 18 17 15 14 14 14 14 13 12 11 11 10 9 9 8 8 8 8 8 7 7 7 7 7 7 7 7 7 7 7 7 7 7 7 7 7 7
18 16 16 16 16 17 17 18 18 16 14 14 15 14 12 11 11 10 9 8 8 8 8 8 8 7 7 7 7 7 7 7 7 7 7 7 7 7 6 6 6 6 6 6
16 16 17 17 18 18 18 18 18 17 16 15 15 14 13 12 11 10 9 8 8 7 7 7 7 7 7 7 7 7 7 7 7 7 6 6 6 6 6 6 6 6 6 6
14 16 17 17 18 18 18 19 19 18 17 16 15 14 12 11 10 9 8 8 8 7 7 7 7 7 7 7 6 6 6 6 6 6 6 6 6 6 6 6 5 5 5 5
14 15 15 15 17 17 17 17 18 17 17 15 14 13 11 10 10 9 8 8 8 7 7 7 7 7 7 6 6 6 6 6 6 6 6 6 6 5 5 5 5 5 5 5
14 14 13 14 16 16 16 17 18 16 15 15 13 12 11 10 9 9 9 8 8 8 7 7 7 7 7 6 6 6 6 6 6 6 6 6 6 5 5 5 5 5 5 5
14 14 13 13 15 16 17 17 17 15 14 13 12 11 10 9 9 8 8 9 8 8 8 7 7 7 7 6 6 6 6 6 6 6 6 6 6 5 5 5 5 5 5 5
14 13 13 14 15 15 16 17 17 15 13 13 12 11 10 10 9 8 8 8 8 8 7 7 7 7 6 6 6 6 6 6 6 6 6 6 6 6 5 5 5 5 5 5
14 14 14 14 14 15 16 17 17 16 14 13 12 11 10 10 10 9 8 8 8 7 7 7 7 7 6 6 6 6 6 6 6 6 6 6 6 6 5 5 5 5 5 5
13 13 14 13 14 14 16 16 15 14 14 13 12 11 11 10 9 8 8 8 7 7 7 7 7 6 6 6 6 6 6 6 6 6 6 6 6 6 6 5 5 5 6 5
13 13 12 13 13 14 15 15 15 15 13 12 12 11 11 9 8 8 8 7 7 7 7 7 7 6 6 6 6 6 6 6 6 6 6 6 6 6 6 6 6 6 6 6
13 13 12 13 13 14 14 15 14 15 14 13 13 12 11 9 8 8 7 7 7 7 7 7 7 6 6 6 6 6 6 6 6 6 6 6 6 6 6 6 6 6 6 6
13 13 13 12 13 13 13 13 13 13 13 12 12 11 11 9 8 8 7 7 7 7 7 7 7 6 6 6 6 6 6 6 6 6 6 6 6 6 6 6 6 6 6 6
12 13 12 12 13 12 12 13 13 13 12 11 11 10 9 9 8 8 7 7 7 7 7 7 6 6 6 6 6 6 6 6 6 6 6 6 6 6 6 6 6 6 6 6
Wind_Speed
2 2 6 10 9 9 7 8 9 9 5 3 5 4 1 3 8 9 8 8 9 9 9 9 9 8 8 7 5 4 4 3 3 3 3 3 3 2 2 2 2 3 3 3
4 7 15 11 10 9 10 8 7 7 3 4 5 4 3 4 5 7 9 9 9 9 9 10 10 9 8 7 6 5 4 3 4 4 3 3 3 2 3 2 4 4 4 4
8 11 9 8 10 8 7 4 4 3 4 6 5 4 5 5 8 9 8 8 8 10 9 9 9 9 8 8 6 5 5 4 3 3 4 5 4 3 3 3 3 5 5 5
8 11 10 8 7 5 5 4 2 1 4 2 3 1 2 3 7 8 8 8 9 9 10 9 10 10 9 8 7 7 6 6 4 4 5 6 5 4 3 3 3 4 6 5
7 7 6 6 6 3 5 2 2 2 3 3 4 4 2 2 4 4 6 8 9 9 9 10 10 9 8 7 7 7 7 7 6 5 4 6 6 5 4 5 6 5 5 7
9 7 4 5 4 2 2 5 7 7 6 3 2 3 2 2 3 5 7 8 8 8 9 10 10 9 8 8 8 7 7 8 7 7 6 7 8 7 7 6 6 5 4 5
8 7 4 2 3 5 6 7 5 6 5 3 1 2 2 3 3 8 9 9 8 7 9 9 9 9 9 9 8 8 8 8 8 8 8 7 8 8 8 6 6 5 4 5
3 7 5 2 2 2 1 7 6 4 4 3 3 1 1 1 7 9 9 10 9 8 8 9 9 8 8 8 8 8 8 9 8 8 8 8 8 7 6 7 6 6 5 5
3 5 5 4 1 3 1 1 6 6 2 1 1 1 0 4 7 9 9 9 8 8 8 8 8 8 7 7 7 8 8 8 8 8 8 9 8 8 8 8 7 6 5 6
5 3 5 4 6 5 3 4 6 5 3 2 2 3 5 8 9 9 8 8 8 8 7 8 7 7 7 7 7 8 8 8 7 7 7 8 8 8 8 8 8 8 7 7
3 2 4 4 2 2 4 3 4 4 5 5 3 5 4 11 12 11 9 9 9 8 7 7 6 6 6 7 7 7 7 8 7 7 8 9 8 8 8 8 8 7 7 7
1 4 0 3 4 1 2 2 4 4 2 4 4 4 1 9 10 11 11 10 10 9 8 7 6 6 6 7 7 7 7 7 7 7 8 8 8 8 8 8 7 7 8 8
3 4 3 6 6 5 1 1 3 5 4 4 4 4 2 8 9 10 12 11 10 10 9 7 7 6 6 5 6 6 6 7 6 7 7 7 7 7 7 7 7 8 8 8
3 2 5 6 7 4 4 3 2 5 4 4 5 7 7 10 11 11 11 11 10 10 9 8 6 6 5 5 5 5 6 5 6 6 7 7 7 6 6 7 7 8 8 8
4 1 1 4 4 2 3 4 3 3 6 6 6 9 13 14 14 13 13 12 12 11 9 8 7 6 5 5 5 5 5 5 6 6 7 6 6 6 6 7 7 7 7 8
3 0 2 4 5 4 5 6 4 3 3 5 6 3 6 11 11 12 13 14 13 11 10 9 8 7 6 5 5 5 5 4 5 6 5 4 5 5 5 6 6 7 7 7
2 2 2 4 6 4 4 3 1 1 3 7 7 7 13 13 14 15 14 13 13 12 11 10 8 7 6 5 5 4 4 4 4 4 4 4 4 5 5 6 6 7 6 7
3 1 1 2 4 3 6 2 4 6 2 4 7 12 15 13 10 8 10 12 13 12 11 9 8 7 5 5 4 4 3 4 4 4 4 4 5 5 5 6 6 6 5 6
7 6 2 1 1 4 4 1 4 5 2 5 12 15 13 14 10 5 6 9 10 10 10 8 7 7 6 5 5 4 4 4 5 5 5 5 5 5 5 5 5 4 4 4
4 6 4 2 1 4 6 3 3 7 2 5 12 17 17 13 8 7 9 10 11 10 9 8 7 7 7 5 5 7 6 5 5 5 5 5 5 5 5 4 4 3 4 4
2 1 3 4 4 6 5 3 1 2 7 10 13 17 15 8 7 12 14 12 11 10 9 9 8 7 6 6 7 7 6 4 3 4 5 5 4 4 4 3 3 4 4 5
2 1 2 3 3 6 4 1 3 5 5 12 11 12 10 10 15 15 15 13 12 11 10 9 8 7 5 6 7 7 5 4 4 5 4 3 3 3 4 4 3 4 5 5
2 4 3 4 5 5 3 1 1 6 10 8 9 12 15 16 15 15 13 13 11 10 9 8 9 8 6 6 7 7 4 4 5 5 5 4 4 4 4 4 4 4 4 4
3 1 2 1 1 1 3 5 5 8 9 11 14 15 16 16 17 15 13 12 10 9 9 8 9 8 6 5 5 5 4 5 6 5 4 4 5 6 5 4 4 4 4 4
5 2 1 2 2 3 4 6 8 11 13 14 13 13 15 18 16 14 12 11 10 9 8 8 8 8 7 6 6 5 5 5 5 4 3 4 5 5 5 5 4 4 1 3
5 5 5 6 7 4 4 5 10 13 13 14 14 13 13 15 15 13 12 10 10 10 9 8 8 8 7 7 6 5 5 6 5 4 3 3 4 4 4 5 4 7 4 5
Wind_Direction
261 115 240 238 219 219 249 270 283 286 299 95 141 141 74 74 102 114 115 110 103 93 88 80 78 75 75 73 76 93 108 131 141 157 160 144 140 136 115 92 95 105 104 126
349 261 242 242 248 241 246 259 281 302 348 79 111 97 52 45 92 112 117 111 104 94 79 72 68 64 63 62 64 76 88 123 151 162 163 142 126 115 94 57 52 60 72 82
234 251 259 247 253 257 263 242 247 274 4 44 90 45 30 38 65 75 83 90 90 90 84 73 67 61 58 53 50 59 60 66 91 118 118 116 104 95 89 65 46 39 53 63
254 261 272 270 259 229 268 260 188 90 55 352 76 133 322 54 65 67 74 80 81 79 76 69 62 55 48 44 43 45 52 53 53 87 115 126 121 117 106 103 80 53 45 48
277 290 293 272 255 237 229 237 90 78 90 47 24 106 291 53 83 88 85 83 79 76 77 73 65 60 49 42 46 46 49 49 43 51 81 104 102 103 98 93 89 72 49 44
264 274 249 243 269 222 118 50 32 42 63 23 304 123 281 264 189 144 115 101 88 80 75 68 62 56 47 42 49 56 56 52 49 54 62 83 97 98 97 90 87 73 57 42
309 311 307 285 354 360 57 71 28 1 11 283 306 101 266 296 154 144 133 116 98 84 74 66 60 55 45 37 39 51 61 56 47 57 62 69 81 87 87 85 83 79 65 53
300 307 313 339 165 226 235 130 154 202 226 269 357 112 272 43 104 109 112 110 100 83 75 70 63 57 49 41 39 48 58 59 51 56 62 65 73 78 77 74 76 72 68 62
212 271 303 316 307 153 116 141 167 144 147 120 266 137 180 114 119 120 119 112 104 93 83 76 65 59 52 49 46 50 62 66 60 60 66 64 65 75 77 73 70 69 64 67
179 261 306 332 31 19 121 146 76 96 138 230 235 212 205 177 171 154 143 130 118 101 88 78 68 61 56 56 56 54 58 66 66 65 71 78 69 71 76 76 70 68 63 63
128 152 323 13 37 321 8 41 94 115 151 160 223 253 221 181 175 162 152 140 130 117 103 89 77 67 62 58 58 60 60 61 61 65 72 76 72 69 72 73 70 68 63 61
62 126 320 292 282 222 149 156 139 148 212 164 174 253 290 162 158 152 145 138 130 122 112 103 95 83 69 63 61 61 64 67 64 67 73 76 75 72 72 72 66 63 62 62
22 95 59 346 337 348 359 239 159 138 131 165 173 223 120 130 137 142 140 136 131 124 119 111 102 91 84 75 70 67 68 73 72 73 74 73 74 76 76 72 67 65 66 64
40 105 164 202 234 249 268 270 184 129 155 201 202 173 168 160 152 147 141 137 133 130 127 120 109 97 92 88 84 82 78 80 83 80 80 77 74 77 76 73 70 68 69 69
61 90 258 247 253 249 260 258 239 194 189 190 203 179 186 179 165 155 147 142 140 138 133 128 122 112 104 98 93 89 84 80 87 88 87 87 82 78 78 74 71 70 69 72
25 28 359 322 293 301 292 279 255 210 160 142 143 184 162 146 143 148 152 152 149 147 142 137 133 128 121 114 106 99 92 88 93 96 96 99 95 88 84 80 75 71 68 68
349 52 29 295 305 328 294 276 232 141 148 160 181 178 144 147 157 161 160 157 155 150 146 144 142 138 133 129 125 116 112 110 102 98 96 95 100 93 87 90 80 77 75 75
187 125 141 289 350 284 258 277 110 99 79 133 125 143 152 149 142 142 153 153 152 150 149 147 144 140 139 134 130 130 128 121 113 108 103 100 102 97 88 84 83 82 81 80
180 161 160 152 268 283 289 281 148 130 89 128 133 137 130 121 106 112 143 147 148 146 146 146 144 140 135 136 140 130 121 115 112 108 102 103 108 106 99 96 96 92 92 89
139 138 147 161 202 247 254 264 140 106 147 175 147 146 146 141 152 170 156 139 134 132 136 138 134 127 128 129 122 110 105 102 103 109 110 106 103 103 104 105 106 101 109 110
47 112 170 187 220 259 265 255 147 186 218 168 159 155 159 171 164 147 142 136 135 133 133 131 127 127 129 124 112 110 111 115 117 111 106 100 104 109 106 97 95 104 104 99
206 193 192 155 202 251 305 56 193 210 136 145 152 154 144 125 123 132 137 137 136 134 133 130 127 125 124 121 117 117 121 121 103 99 97 95 98 104 107 98 91 92 105 106
215 193 185 185 216 257 317 146 135 125 127 133 142 141 135 132 135 137 139 140 139 137 136 134 132 125 120 123 124 126 135 122 108 100 93 89 80 73 89 102 103 93 99 108
290 234 134 87 278 358 52 74 78 106 121 129 136 137 138 137 140 139 142 141 139 137 137 136 132 130 131 136 136 143 142 124 113 110 101 96 90 80 71 74 88 99 107 113
263 276 135 154 183 80 68 92 103 103 109 117 125 133 138 138 141 142 144 145 143 140 138 138 138 139 144 142 139 142 138 123 117 116 104 97 99 101 86 72 66 90 97 167
231 200 183 205 197 163 163 139 123 122 125 129 129 127 135 140 141 140 143 142 141 140 138 138 139 142 143 140 143 147 143 134 129 121 117 124 125 116 111 101 65 41 58 78
Height
1491 1497 1501 1497 1495 1497 1496 1498 1497 1488 1478 1482 1488 1491 1492 1491 1490 1491 1493 1495 1496 1498 1500 1501 1501 1502 1503 1504 1504 1504 1505 1506 1507 1508 1510 1510 1510 1511 1512 1513 1515 1516 1516 1518
1497 1498 1488 1487 1488 1490 1492 1495 1493 1486 1478 1482 1490 1495 1493 1493 1494 1493 1494 1496 1497 1499 1500 1501 1502 1502 1502 1503 1503 1503 1503 1504 1504 1506 1506 1507 1509 1509 1509 1511 1512 1512 1513 1515
1497 1488 1480 1483 1484 1486 1487 1489 1488 1487 1483 1484 1490 1502 1501 1498 1497 1498 1499 1500 1500 1500 1501 1502 1503 1503 1503 1503 1503 1503 1503 1504 1504 1504 1505 1505 1507 1507 1508 1510 1509 1509 1511 1513
1489 1481 1480 1480 1480 1480 1488 1478 1479 1482 1491 1501 1498 1516 1509 1504 1503 1503 1503 1503 1503 1503 1504 1504 1505 1505 1504 1503 1504 1503 1503 1503 1504 1503 1503 1503 1504 1505 1506 1506 1507 1508 1510 1511
1487 1479 1479 1479 1475 1473 1478 1473 1477 1481 1490 1503 1503 1512 1514 1506 1507 1507 1506 1506 1505 1505 1506 1505 1506 1506 1505 1504 1504 1504 1504 1504 1504 1503 1503 1503 1502 1503 1505 1506 1507 1508 1509 1510
1480 1474 1474 1473 1469 1468 1470 1476 1482 1491 1500 1514 1508 1513 1517 1510 1507 1506 1506 1507 1507 1507 1507 1506 1506 1507 1506 1505 1505 1504 1504 1503 1503 1503 1502 1501 1502 1502 1504 1505 1506 1507 1507 1508
1484 1475 1470 1468 1471 1470 1474 1493 1511 1513 1521 1520 1507 1512 1516 1507 1503 1504 1506 1507 1508 1509 1508 1508 1507 1507 1507 1506 1505 1504 1504 1503 1503 1503 1502 1502 1503 1503 1504 1505 1506 1507 1507 1507
1494 1490 1473 1469 1472 1477 1477 1489 1513 1521 1524 1520 1510 1515 1514 1506 1505 1506 1508 1509 1510 1510 1509 1509 1509 1508 1508 1507 1506 1505 1504 1504 1503 1503 1503 1503 1503 1504 1505 1506 1507 1507 1507 1507
1490 1488 1471 1468 1467 1471 1478 1486 1490 1507 1511 1520 1518 1514 1511 1508 1508 1510 1511 1511 1511 1511 1512 1511 1511 1510 1509 1509 1507 1506 1506 1505 1505 1505 1505 1505 1505 1505 1506 1507 1508 1507 1507 1508
1480 1486 1476 1469 1469 1471 1475 1481 1495 1506 1517 1522 1517 1514 1514 1509 1509 1509 1511 1512 1512 1513 1513 1513 1513 1513 1512 1511 1509 1509 1508 1507 1507 1507 1507 1507 1507 1508 1508 1508 1509 1509 1509 1510
1475 1487 1483 1478 1481 1483 1481 1484 1492 1503 1508 1519 1523 1518 1500 1501 1503 1506 1510 1511 1512 1513 1514 1515 1515 1515 1514 1513 1512 1511 1511 1510 1510 1509 1509 1509 1510 1510 1510 1510 1511 1512 1512 1512
1476 1488 1493 1486 1478 1475 1477 1482 1491 1504 1506 1508 1516 1515 1497 1497 1500 1504 1508 1510 1512 1513 1514 1516 1516 1516 1516 1515 1514 1514 1513 1513 1513 1512 1512 1512 1512 1512 1513 1513 1514 1514 1515 1515
1478 1489 1501 1498 1492 1482 1481 1479 1483 1492 1501 1507 1512 1510 1499 1499 1502 1505 1507 1510 1512 1514 1515 1516 1517 1517 1517 1517 1517 1516 1516 1516 1516 1516 1516 1515 1515 1516 1516 1517 1517 1517 1518 1518
1476 1487 1496 1501 1495 1485 1484 1479 1479 1488 1501 1502 1499 1500 1502 1501 1503 1505 1508 1510 1512 1514 1516 1517 1518 1519 1519 1519 1519 1519 1519 1519 1519 1519 1519 1519 1519 1519 1519 1520 1520 1521 1521 1522
1479 1487 1484 1483 1478 1478 1479 1477 1476 1481 1485 1492 1490 1492 1494 1497 1500 1504 1507 1510 1512 1515 1516 1518 1519 1520 1521 1521 1522 1522 1522 1522 1522 1522 1523 1522 1523 1523 1523 1523 1524 1525 1525 1525
1483 1486 1484 1483 1477 1476 1476 1472 1472 1474 1477 1481 1486 1491 1488 1494 1500 1504 1507 1509 1512 1515 1517 1519 1521 1522 1523 1523 1524 1524 1525 1525 1526 1526 1526 1526 1526 1527 1527 1527 1528 1528 1529 1529
1486 1488 1491 1492 1482 1479 1484 1475 1472 1473 1474 1478 1484 1487 1490 1495 1499 1502 1505 1508 1511 1514 1517 1519 1521 1523 1524 1526 1526 1527 1528 1528 1529 1529 1529 1530 1530 1530 1531 1531 1532 1532 1532 1533
1485 1489 1495 1495 1491 1493 1482 1469 1469 1473 1475 1474 1477 1483 1488 1492 1498 1502 1505 1508 1511 1514 1517 1520 1522 1524 1526 1527 1529 1529 1530 1531 1531 1532 1532 1533 1533 1534 1534 1534 1535 1535 1536 1536
1477 1486 1493 1497 1496 1489 1476 1470 1470 1474 1480 1478 1480 1486 1491 1495 1501 1506 1507 1509 1511 1515 1518 1521 1523 1526 1528 1529 1531 1531 1532 1533 1534 1535 1535 1535 1536 1536 1537 1537 1538 1538 1539 1539
1474 1479 1490 1494 1495 1494 1479 1467 1467 1472 1483 1480 1480 1485 1490 1495 1501 1505 1507 1510 1513 1516 1520 1522 1525 1527 1529 1531 1533 1534 1535 1536 1537 1537 1538 1538 1539 1539 1540 1540 1541 1541 1542 1543
1482 1484 1488 1490 1492 1484 1470 1466 1467 1479 1479 1477 1479 1483 1488 1491 1494 1499 1505 1510 1514 1518 1521 1524 1527 1529 1531 1533 1535 1536 1537 1538 1539 1540 1541 1541 1542 1542 1543 1543 1543 1544 1545 1545
1484 1485 1486 1487 1491 1486 1468 1467 1470 1470 1468 1473 1478 1482 1487 1490 1494 1499 1505 1510 1515 1519 1523 1526 1528 1531 1533 1535 1537 1538 1540 1541 1542 1543 1543 1544 1544 1545 1545 1546 1546 1547 1547 1548
1480 1480 1481 1482 1483 1473 1468 1467 1466 1466 1469 1474 1478 1483 1487 1491 1496 1501 1506 1511 1516 1520 1524 1527 1530 1532 1535 1537 1539 1540 1542 1543 1544 1545 1546 1546 1547 1547 1548 1548 1549 1549 1550 1550
1477 1474 1476 1477 1474 1472 1470 1469 1469 1469 1471 1475 1479 1483 1487 1492 1497 1503 1508 1513 1517 1521 1525 1528 1531 1534 1536 1539 1541 1543 1544 1545 1546 1547 1548 1549 1549 1550 1550 1551 1551 1551 1552 1552
1477 1475 1475 1476 1474 1473 1473 1472 1473 1474 1476 1478 1482 1485 1489 1493 1499 1504 1509 1514 1518 1522 1526 1529 1532 1535 1538 1540 1543 1544 1546 1547 1548 1549 1550 1551 1552 1552 1552 1552 1553 1554 1554 1554
1472 1472 1473 1473 1470 1472 1474 1474 1475 1476 1479 1481 1484 1489 1493 1496 1501 1506 1511 1516 1520 1524 1527 1531 1534 1537 1539 1542 1544 1546 1548 1549 1550 1551 1552 1553 1554 1554 1554 1555 1555 1555 1556 1556